1501995600.15,33310,24.25,74542.5,13.73,-1.25,-0.93,0,*75
1501995601.39,33311,24.25,74546.0,13.73,-1.35,-1.25,0,*49
1501995602.64,33312,24.25,74540.8,13.73,-1.29,-1.05,0,*45
1501995603.89,33313,24.25,74542.0,13.73,-1.25,-1.05,0,*48
1501995605.13,33314,24.25,74544.3,13.73,-0.89,-0.53,0,*4A
1501995606.34,33315,24.25,74540.0,13.71,-1.09,-0.81,0,*7F
1501995607.59,33316,24.25,74544.0,13.73,-1.01,-0.77,0,*7F
1501995608.81,33317,24.25,74540.8,13.75,-0.97,-0.81,0,*4F
1501995610.03,33318,24.25,74540.5,13.75,-1.25,-1.01,0,*41
1501995611.28,33319,24.25,74540.8,13.73,-1.17,-1.01,0,*47
1501995612.47,33320,24.25,74546.3,13.75,-0.69,-0.45,0,*42
1501995613.69,33321,24.25,74542.3,13.75,-1.01,-0.81,0,*74
1501995614.93,33322,24.25,74546.5,13.75,-1.09,-0.89,0,*77
1501995616.18,33323,24.25,74542.0,13.73,-1.01,-0.77,0,*79
1501995617.39,33324,24.25,74544.3,13.75,-0.85,-0.49,0,*48
1501995618.63,33325,24.25,74542.3,13.73,-0.93,-0.73,0,*41
1501995619.87,33326,24.25,74544.8,13.75,-1.01,-0.89,0,*7B
1501995621.09,33327,24.25,74548.0,13.77,-0.81,-0.57,0,*42
1501995622.28,33328,24.25,74544.3,13.75,-0.81,-0.57,0,*4F
1501995623.47,33329,24.25,74550.0,13.79,-0.65,-0.37,0,*4E
1501995624.71,33330,24.25,74544.0,13.77,-0.89,-0.69,0,*41
1501995625.92,33331,24.25,74548.3,13.79,-0.85,-0.69,0,*42
1501995627.18,33332,24.25,74550.8,13.77,-1.13,-0.97,0,*70
1501995628.43,33333,24.25,74548.0,13.77,-1.43,-1.33,0,*4B
1501995629.64,33334,24.25,74546.5,13.79,-1.51,-1.39,0,*4B
1501995630.89,33335,24.31,74550.0,13.77,-1.47,-1.33,0,*49
1501995632.13,33336,24.25,74548.0,13.77,-1.21,-1.01,0,*4B
1501995633.37,33337,24.25,74550.0,13.77,-0.89,-0.69,0,*46
1501995634.58,33338,24.25,74548.8,13.79,-0.85,-0.77,0,*44
1501995635.84,33339,24.25,74550.3,13.77,-0.97,-0.89,0,*49
1501995637.08,33340,24.25,74550.5,13.77,-0.85,-0.61,0,*42
1501995638.27,33341,24.25,74550.5,13.79,-0.65,-0.33,0,*44
1501995639.47,33342,24.25,74550.5,13.79,-0.93,-0.77,0,*4E
1501995640.68,33343,24.31,74552.0,13.79,-0.85,-0.65,0,*4B
1501995641.88,33344,24.25,74550.8,13.79,-1.17,-1.17,0,*42
1501995643.1,33345,24.25,74552.0,13.79,-1.21,-1.05,0,*45
1501995644.29,33346,24.25,74548.5,13.79,-1.51,-1.33,0,*44
1501995645.49,33347,24.25,74548.8,13.79,-1.33,-1.21,0,*42
1501995646.69,33348,24.25,74548.8,13.79,-1.29,-1.17,0,*43
1501995647.89,33349,24.25,74548.0,13.79,-1.29,-1.17,0,*42
1501995649.13,33350,24.25,74548.5,13.79,-1.09,-1.05,0,*4B
1501995650.36,33351,24.25,74548.8,13.79,-0.97,-0.97,0,*46
1501995651.61,33352,24.25,74548.8,13.77,-1.25,-1.13,0,*4E
1501995652.8,33353,24.25,74552.3,13.79,-1.21,-1.17,0,*41
1501995654.05,33354,24.31,74552.0,13.77,-1.47,-1.33,0,*4E
1501995655.29,33355,24.31,74554.3,13.77,-1.35,-1.33,0,*4A
1501995656.52,33356,24.25,74544.0,13.77,-1.33,-1.21,0,*4C
1501995657.73,33357,24.25,74550.0,13.77,-0.81,-0.61,0,*40
1501995658.91,33358,24.25,74544.8,13.79,-0.65,-0.53,0,*4A
1501995660.1,33359,24.25,74548.5,13.79,-0.77,-0.69,0,*41
1501995661.34,33360,24.25,74550.5,13.79,-1.09,-1.09,0,*44
1501995662.54,33361,24.25,74544.8,13.79,-1.33,-1.21,0,*46
1501995663.79,33362,24.25,74544.8,13.79,-1.05,-1.05,0,*46
1501995665.0,33363,24.25,74544.0,13.79,-1.51,-1.47,0,*40
1501995666.22,33364,24.25,74546.8,13.77,-1.63,-1.63,0,*4E
1501995667.47,33365,24.25,74544.8,13.75,-1.87,-1.83,0,*49
1501995668.72,33366,24.25,74542.3,13.75,-1.47,-1.43,0,*4A
1501995670.0,33367,24.25,74542.0,13.77,-1.43,-1.43,0,*4D
1501995671.23,33368,24.25,74544.3,13.77,-1.71,-1.71,0,*42
1501995672.45,33369,24.25,74542.3,13.75,-1.83,-1.75,0,*48
1501995673.7,33370,24.25,74542.8,13.75,-1.99,-1.95,0,*45
1501995674.94,33371,24.25,74540.3,13.75,-1.95,-1.95,0,*48
1501995676.16,33372,24.25,74538.8,13.73,-1.67,-1.63,0,*49
1501995677.38,33373,24.25,74536.8,13.75,-1.75,-1.83,0,*43
1501995678.66,33374,24.25,74540.5,13.73,-1.99,-1.91,0,*43
1501995679.95,33375,24.25,74544.8,13.73,-1.99,-1.99,0,*4A
1501995681.17,33376,24.25,74544.0,13.73,-2.23,-2.15,0,*4C
1501995682.36,33377,24.25,74546.8,13.71,-2.31,-2.39,0,*42
1501995683.58,33378,24.25,74546.8,13.69,-2.39,-2.31,0,*44
1501995684.78,33379,24.25,74546.5,13.67,-2.19,-2.19,0,*43
1501995686.03,33380,24.25,74546.3,13.67,-2.07,-2.07,0,*45
1501995687.28,33381,24.25,74536.8,13.67,-1.95,-1.99,0,*48
1501995688.53,33382,24.25,74540.5,13.67,-1.95,-1.99,0,*4B
1501995689.73,33383,24.25,74542.8,13.67,-2.19,-2.19,0,*46
1501995690.95,33384,24.25,74544.5,13.65,-2.35,-2.39,0,*4F
1501995692.21,33385,24.31,74544.3,13.65,-2.59,-2.59,0,*42
1501995693.46,33386,24.25,74542.5,13.65,-2.47,-2.39,0,*48
1501995694.66,33387,24.25,74542.5,13.63,-2.23,-2.23,0,*46
1501995695.85,33388,24.25,74540.5,13.63,-2.27,-2.23,0,*4D
1501995697.04,33389,24.25,74542.8,13.59,-2.19,-2.27,0,*4C
1501995698.29,33390,24.25,74544.8,13.59,-1.95,-2.03,0,*45
1501995699.54,33391,24.25,74546.3,13.59,-2.07,-2.07,0,*48
1501995700.78,33392,24.31,74550.8,13.59,-1.95,-2.03,0,*47
1501995702.0,33393,24.31,74548.0,13.59,-2.07,-2.27,0,*48
1501995703.22,33394,24.31,74550.0,13.57,-2.23,-2.23,0,*43
1501995704.5,33395,24.31,74550.5,13.57,-1.83,-1.87,0,*46
1501995705.77,33396,24.31,74548.5,13.57,-1.95,-1.99,0,*4D
1501995707.05,33397,24.25,74544.8,13.57,-1.87,-1.87,0,*40
1501995708.31,33398,24.31,74548.3,13.57,-1.87,-1.95,0,*4C
1501995709.59,33399,24.25,74546.0,13.57,-1.83,-1.87,0,*4A
1501995710.83,33400,24.31,74550.8,13.59,-1.95,-2.03,0,*4B
1501995712.1,33401,24.31,74552.3,13.57,-1.87,-1.95,0,*4B
1501995713.35,33402,24.31,74552.5,13.57,-1.79,-1.87,0,*4A
1501995714.56,33403,24.25,74548.3,13.57,-1.59,-1.59,0,*4A
1501995715.84,33404,24.25,74548.0,13.57,-2.11,-2.11,0,*4D
1501995717.11,33405,24.25,74550.5,13.57,-1.99,-2.11,0,*4F
1501995718.33,33406,24.31,74550.8,13.57,-1.59,-1.79,0,*4D
1501995719.58,33407,24.31,74550.0,13.55,-1.33,-1.35,0,*4A
1501995720.83,33408,24.25,74548.3,13.57,-1.33,-1.43,0,*46
1501995722.04,33409,24.31,74548.3,13.55,-1.59,-1.59,0,*42
1501995723.31,33410,24.31,74550.0,13.57,-1.87,-1.95,0,*4B
1501995724.53,33411,24.31,74548.3,13.57,-1.67,-1.71,0,*4E
1501995725.81,33412,24.25,74546.5,13.57,-1.43,-1.47,0,*4E
1501995727.03,33413,24.31,74548.5,13.57,-1.21,-1.33,0,*48
1501995728.27,33414,24.25,74544.8,13.57,-1.13,-1.33,0,*4E
1501995729.53,33415,24.31,74546.8,13.59,-1.39,-1.39,0,*43
1501995730.73,33416,24.31,74548.8,13.59,-1.17,-1.29,0,*4D
1501995731.95,33417,24.25,74546.8,13.59,-1.43,-1.55,0,*46
1501995733.19,33418,24.25,74546.5,13.59,-1.43,-1.43,0,*4E
1501995734.39,33419,24.25,74546.8,13.59,-1.63,-1.75,0,*48
1501995735.64,33420,24.31,74548.3,13.63,-1.39,-1.47,0,*45
1501995736.88,33421,24.25,74544.8,13.59,-1.83,-1.95,0,*43
1501995738.07,33422,24.25,74546.3,13.63,-1.51,-1.59,0,*46
1501995739.26,33423,24.25,74550.0,13.59,-1.63,-1.67,0,*42
1501995740.46,33424,24.25,74546.5,13.63,-1.75,-1.79,0,*44
1501995741.65,33425,24.25,74550.5,13.59,-1.51,-1.55,0,*44
1501995742.87,33426,24.25,74550.8,13.59,-1.39,-1.51,0,*4D
1501995744.06,33427,24.31,74554.0,13.63,-1.51,-1.51,0,*4B
1501995745.25,33428,24.31,74550.0,13.63,-1.51,-1.59,0,*4C
1501995746.5,33429,24.25,74550.5,13.59,-1.91,-2.07,0,*40
1501995747.74,33430,24.31,74550.3,13.59,-1.95,-2.07,0,*4C
1501995748.99,33431,24.25,74548.0,13.63,-1.91,-1.99,0,*44
1501995750.24,33432,24.25,74550.5,13.57,-1.79,-1.87,0,*49
1501995751.48,33433,24.25,74550.5,13.57,-1.79,-1.83,0,*4C
1501995752.75,33434,24.25,74548.3,13.57,-1.83,-1.95,0,*49
1501995754.01,33435,24.25,74548.0,13.57,-2.11,-2.23,0,*4E
1501995755.27,33436,24.25,74550.0,13.57,-1.87,-1.95,0,*4F
1501995756.5,33437,24.31,74546.5,13.57,-1.71,-1.71,0,*4D
1501995757.72,33438,24.25,74544.8,13.57,-1.55,-1.59,0,*4E
1501995758.94,33439,24.25,74546.0,13.57,-1.55,-1.67,0,*42
1501995760.16,33440,24.31,74548.3,13.55,-1.55,-1.67,0,*4E
1501995761.4,33441,24.25,74546.5,13.55,-1.79,-1.95,0,*4C
1501995762.65,33442,24.31,74550.0,13.57,-2.07,-2.19,0,*40
1501995763.91,33443,24.25,74540.3,13.55,-1.83,-1.95,0,*4B
1501995765.16,33444,24.31,74542.5,13.57,-2.11,-2.23,0,*48
1501995766.38,33445,24.25,74540.8,13.55,-2.19,-2.35,0,*44
1501995767.59,33446,24.25,74534.0,13.55,-2.31,-2.43,0,*4C
1501995768.83,33447,24.25,74538.5,13.51,-2.07,-2.27,0,*4E
1501995770.05,33448,24.25,74538.3,13.51,-2.15,-2.31,0,*45
1501995771.24,33449,24.31,74538.3,13.53,-2.23,-2.39,0,*4B
1501995772.45,33450,24.31,74540.0,13.51,-2.19,-2.31,0,*40
1501995773.67,33451,24.31,74542.5,13.51,-2.15,-2.31,0,*4D
1501995774.88,33452,24.25,74532.3,13.51,-2.19,-2.31,0,*42
1501995776.07,33453,24.31,74540.3,13.49,-2.39,-2.43,0,*4D
1501995777.26,33454,24.31,74540.0,13.49,-2.31,-2.39,0,*4F
1501995778.47,33455,24.25,74542.3,13.49,-1.75,-1.91,0,*4C
1501995779.69,33456,24.25,74542.3,13.49,-2.03,-2.19,0,*4E
1501995780.9,33457,24.25,74540.0,13.49,-1.95,-2.19,0,*43
1501995782.12,33458,24.25,74542.8,13.49,-2.07,-2.19,0,*44
1501995783.33,33459,24.31,74540.8,13.49,-2.03,-2.19,0,*41
1501995784.58,33460,24.31,74540.3,13.47,-2.35,-2.55,0,*48
1501995785.8,33461,24.25,74538.5,13.47,-2.23,-2.31,0,*4C
1501995787.06,33462,24.31,74540.3,13.47,-1.95,-2.11,0,*43
1501995788.28,33463,24.25,74540.8,13.47,-1.67,-1.79,0,*42
1501995789.52,33464,24.31,74546.5,13.47,-1.67,-1.83,0,*40
1501995790.79,33465,24.31,74548.5,13.47,-1.91,-2.07,0,*47
1501995792.01,33466,24.31,74546.5,13.47,-1.67,-1.79,0,*47
1501995793.25,33467,24.31,74546.5,13.47,-1.25,-1.47,0,*4D
1501995794.47,33468,24.25,74542.8,13.49,-1.29,-1.43,0,*44
1501995795.66,33469,24.25,74544.8,13.49,-1.29,-1.33,0,*42
1501995796.91,33470,24.31,74548.0,13.47,-1.33,-1.43,0,*48
1501995798.13,33471,24.31,74548.0,13.49,-1.29,-1.39,0,*41
1501995799.35,33472,24.25,74546.3,13.51,-1.17,-1.29,0,*47
1501995800.56,33473,24.25,74544.8,13.51,-1.21,-1.33,0,*48
1501995801.8,33474,24.25,74544.0,13.51,-1.21,-1.39,0,*45
1501995803.05,33475,24.31,74544.8,13.51,-1.29,-1.43,0,*41
1501995804.27,33476,24.25,74542.3,13.53,-1.43,-1.51,0,*4F
1501995805.49,33477,24.25,74544.8,13.53,-1.35,-1.51,0,*4F
1501995806.7,33478,24.25,74544.3,13.51,-1.51,-1.63,0,*41
1501995807.92,33479,24.31,74546.5,13.53,-1.17,-1.35,0,*43
1501995809.15,33480,24.25,74542.3,13.53,-1.29,-1.47,0,*4D
1501995810.33,33481,24.31,74550.0,13.53,-1.25,-1.25,0,*44
1501995811.53,33482,24.25,74544.0,13.53,-1.17,-1.29,0,*4A
1501995812.76,33483,24.25,74546.3,13.53,-1.17,-1.39,0,*4A
1501995813.98,33484,24.31,74550.0,13.53,-1.29,-1.47,0,*49
1501995815.23,33485,24.25,74548.8,13.55,-1.25,-1.43,0,*46
1501995816.47,33486,24.25,74544.3,13.55,-1.47,-1.59,0,*4A
1501995817.68,33487,24.31,74550.0,13.55,-1.55,-1.59,0,*48
1501995818.95,33488,24.31,74548.5,13.55,-1.35,-1.47,0,*4E
1501995820.16,33489,24.25,74548.5,13.55,-1.21,-1.25,0,*4E
1501995821.41,33490,24.25,74548.8,13.57,-1.13,-1.25,0,*45
1501995822.66,33491,24.31,74550.3,13.57,-1.33,-1.43,0,*46
1501995823.93,33492,24.31,74550.0,13.55,-1.43,-1.47,0,*44
1501995825.18,33493,24.31,74550.3,13.57,-1.47,-1.67,0,*41
1501995826.4,33494,24.25,74544.0,13.55,-1.59,-1.67,0,*4B
1501995827.61,33495,24.31,74548.8,13.55,-1.67,-1.79,0,*48
1501995828.89,33496,24.25,74546.0,13.55,-1.83,-1.99,0,*4F
1501995830.13,33497,24.31,74550.5,13.55,-2.31,-2.47,0,*44
1501995831.38,33498,24.31,74550.8,13.53,-2.51,-2.51,0,*4C
1501995832.59,33499,24.25,74550.5,13.51,-2.27,-2.27,0,*4F
1501995833.85,33500,24.31,74550.8,13.51,-1.95,-2.07,0,*46
1501995835.11,33501,24.31,74550.0,13.51,-1.95,-1.95,0,*4F
1501995836.35,33502,24.31,74548.3,13.53,-1.87,-1.87,0,*4E
1501995837.62,33503,24.25,74550.8,13.51,-1.91,-1.91,0,*4D
1501995838.83,33504,24.31,74550.5,13.51,-2.15,-2.19,0,*46
1501995840.07,33505,24.31,74550.0,13.53,-1.91,-1.99,0,*41
1501995841.34,33506,24.25,74546.8,13.51,-1.91,-1.91,0,*48
1501995842.6,33507,24.31,74550.5,13.51,-1.95,-2.07,0,*41
1501995843.78,33508,24.31,74548.5,13.49,-2.27,-2.27,0,*4F
1501995844.97,33509,24.25,74544.3,13.49,-2.39,-2.43,0,*43
1501995846.16,33510,24.31,74548.3,13.49,-2.31,-2.39,0,*4E
1501995847.38,33511,24.25,74548.0,13.47,-2.35,-2.35,0,*49
1501995848.59,33512,24.31,74550.8,13.47,-2.23,-2.31,0,*49
1501995849.81,33513,24.25,74546.8,13.45,-2.03,-2.15,0,*4E
1501995851.03,33514,24.31,74546.0,13.45,-2.11,-2.15,0,*4A
1501995852.22,33515,24.25,74546.0,13.45,-2.23,-2.27,0,*4B
1501995853.41,33516,24.31,74548.3,13.45,-2.23,-2.27,0,*48
1501995854.67,33517,24.25,74544.0,13.43,-2.03,-2.11,0,*48
1501995855.86,33518,24.31,74550.0,13.45,-2.27,-2.27,0,*42
1501995857.13,33519,24.31,74548.5,13.43,-2.63,-2.71,0,*46
1501995858.39,33520,24.31,74550.0,13.43,-2.59,-2.71,0,*45
1501995859.58,33521,24.25,74544.5,13.41,-2.15,-2.19,0,*40
1501995860.83,33522,24.31,74550.0,13.41,-2.03,-2.07,0,*4B
1501995862.03,33523,24.25,74550.0,13.41,-1.75,-1.67,0,*4D
1501995863.22,33524,24.31,74554.8,13.41,-1.63,-1.67,0,*4D
1501995864.44,33525,24.25,74548.3,13.41,-1.47,-1.55,0,*4B
1501995865.63,33526,24.25,74548.5,13.41,-1.51,-1.55,0,*4F
1501995866.87,33527,24.31,74550.8,13.41,-1.43,-1.43,0,*4A
1501995868.09,33528,24.31,74550.3,13.41,-1.43,-1.51,0,*46
1501995869.31,33529,24.31,74548.5,13.41,-1.43,-1.51,0,*47
1501995870.53,33530,24.25,74550.5,13.43,-1.75,-1.71,0,*4A
1501995871.8,33531,24.25,74550.8,13.43,-1.99,-2.03,0,*4F
1501995873.08,33532,24.31,74554.3,13.43,-1.99,-1.99,0,*4C
1501995874.29,33533,24.25,74550.5,13.43,-2.15,-2.23,0,*48
1501995875.54,33534,24.25,74548.3,13.37,-2.07,-2.07,0,*49
1501995876.78,33535,24.31,74552.3,13.37,-2.07,-2.03,0,*4C
1501995878.02,33536,24.31,74552.5,13.41,-1.91,-1.91,0,*4A
1501995879.21,33537,24.31,74548.0,13.41,-1.75,-1.75,0,*4B
1501995880.46,33538,24.31,74548.5,13.37,-2.03,-2.11,0,*46
1501995881.7,33539,24.25,74548.8,13.37,-2.03,-1.95,0,*48
1501995882.88,33540,24.31,74548.5,13.37,-2.23,-2.19,0,*43
1501995884.07,33541,24.31,74552.3,13.37,-2.19,-2.19,0,*4B
1501995885.26,33542,24.31,74548.8,13.41,-2.15,-2.19,0,*45
1501995886.48,33543,24.31,74548.3,13.35,-2.19,-2.23,0,*42
1501995887.72,33544,24.25,74546.5,13.35,-2.11,-2.19,0,*44
1501995888.91,33545,24.31,74550.8,13.33,-2.15,-2.23,0,*4E
1501995890.13,33546,24.31,74550.8,13.35,-2.19,-2.23,0,*47
1501995891.37,33547,24.25,74546.5,13.33,-2.51,-2.51,0,*49
1501995892.56,33548,24.25,74546.3,13.33,-2.15,-2.15,0,*46
1501995893.81,33549,24.31,74544.3,13.33,-2.11,-2.07,0,*40
1501995895.01,33550,24.31,74546.8,13.33,-1.71,-1.75,0,*4B
1501995896.2,33551,24.31,74546.5,13.33,-1.63,-1.71,0,*4D
1501995897.4,33552,24.25,74546.8,13.33,-1.71,-1.67,0,*4A
1501995898.64,33553,24.31,74546.5,13.33,-1.99,-1.95,0,*40
1501995899.89,33554,24.25,74546.0,13.31,-2.11,-2.15,0,*4D
1501995901.11,33555,24.25,74546.0,13.33,-2.47,-2.39,0,*43
1501995902.36,33556,24.31,74550.3,13.31,-2.47,-2.35,0,*4E
1501995903.6,33557,24.31,74550.8,13.31,-2.15,-2.11,0,*4E
1501995904.88,33558,24.31,74552.5,13.31,-2.11,-2.07,0,*42
1501995906.15,33559,24.31,74554.0,13.31,-2.07,-1.95,0,*4C
1501995907.4,33560,24.31,74554.8,13.29,-2.11,-2.03,0,*44
1501995908.65,33561,24.31,74552.0,13.29,-1.99,-1.87,0,*49
1501995909.87,33562,24.25,74550.5,13.29,-1.91,-1.79,0,*43
1501995911.12,33563,24.25,74554.3,13.29,-2.03,-1.99,0,*44
1501995912.37,33564,24.25,74554.5,13.29,-1.99,-1.87,0,*4C
1501995913.61,33565,24.31,74554.0,13.29,-1.91,-1.91,0,*42
1501995914.87,33566,24.31,74554.0,13.27,-2.07,-1.95,0,*47
1501995916.08,33567,24.31,74556.5,13.27,-2.19,-2.15,0,*42
1501995917.3,33568,24.31,74558.3,13.27,-2.15,-2.15,0,*41
1501995918.56,33569,24.31,74558.8,13.27,-2.03,-1.83,0,*4B
1501995919.83,33570,24.31,74556.8,13.27,-1.91,-1.83,0,*4B
1501995921.08,33571,24.31,74558.3,13.25,-2.11,-2.11,0,*4B
1501995922.32,33572,24.31,74558.3,13.27,-2.19,-2.07,0,*45
1501995923.56,33573,24.31,74554.8,13.25,-2.07,-1.87,0,*42
1501995924.83,33574,24.31,74558.8,13.27,-1.91,-1.91,0,*4C
1501995926.05,33575,24.31,74552.5,13.25,-2.23,-1.99,0,*4D
1501995927.29,33576,24.25,74554.0,13.25,-1.87,-1.83,0,*48
1501995928.53,33577,24.25,74554.0,13.25,-1.99,-1.95,0,*41
1501995929.78,33578,24.25,74552.8,13.25,-2.07,-2.07,0,*42
1501995931.04,33579,24.31,74558.8,13.23,-2.11,-1.99,0,*46
1501995932.28,33580,24.25,74556.0,13.25,-1.99,-1.95,0,*49
1501995933.49,33581,24.31,74554.5,13.23,-2.19,-2.11,0,*4A
1501995934.68,33582,24.25,74550.8,13.23,-2.23,-2.19,0,*48
1501995935.9,33583,24.31,74550.3,13.23,-2.23,-2.11,0,*41
1501995937.17,33584,24.31,74550.0,13.21,-2.11,-1.91,0,*4E
1501995938.45,33585,24.31,74552.0,13.21,-2.11,-1.91,0,*4F
1501995939.72,33586,24.25,74552.5,13.21,-2.03,-1.91,0,*4F
1501995940.99,33587,24.31,74550.0,13.21,-2.03,-1.91,0,*4E
1501995942.26,33588,24.31,74552.3,13.21,-2.11,-2.03,0,*4A
1501995943.54,33589,24.31,74550.5,13.21,-1.99,-1.91,0,*40
1501995944.81,33590,24.25,74550.0,13.21,-2.03,-1.99,0,*40
1501995946.03,33591,24.31,74552.3,13.19,-2.15,-2.03,0,*4D
1501995947.29,33592,24.25,74550.8,13.17,-2.03,-1.95,0,*4B
1501995948.53,33593,24.25,74548.8,13.19,-1.95,-1.91,0,*4C
1501995949.74,33594,24.31,74548.8,13.17,-2.27,-2.15,0,*40
1501995950.93,33595,24.31,74548.8,13.19,-2.27,-2.15,0,*4F
1501995952.17,33596,24.25,74546.8,13.19,-2.11,-1.91,0,*46
1501995953.41,33597,24.31,74552.0,13.17,-2.15,-2.07,0,*41
1501995954.66,33598,24.31,74550.8,13.19,-2.11,-1.91,0,*48
1501995955.92,33599,24.31,74550.8,13.17,-2.07,-2.03,0,*48
1501995957.17,33600,24.25,74550.8,13.13,-1.87,-1.75,0,*46
1501995958.45,33601,24.31,74548.5,13.13,-2.07,-1.99,0,*4E
1501995959.69,33602,24.25,74544.3,13.13,-2.23,-2.07,0,*4F
1501995960.96,33603,24.31,74550.8,13.13,-2.07,-1.87,0,*43
1501995962.2,33604,24.25,74540.8,13.11,-2.07,-1.95,0,*45
1501995963.45,33605,24.31,74544.3,13.13,-2.31,-2.11,0,*4C
1501995964.7,33606,24.31,74544.8,13.13,-2.19,-1.99,0,*46
1501995965.94,33607,24.31,74540.8,13.11,-2.07,-1.95,0,*46
1501995967.16,33608,24.31,74544.3,13.11,-2.19,-1.99,0,*4A
1501995968.4,33609,24.25,74544.5,13.11,-2.07,-1.99,0,*44
1501995969.64,33610,24.31,74540.8,13.11,-1.95,-1.83,0,*4F
1501995970.89,33611,24.25,74546.3,13.11,-1.99,-1.83,0,*42
1501995972.15,33612,24.31,74544.0,13.11,-2.11,-1.99,0,*49
1501995973.42,33613,24.31,74544.3,13.09,-2.11,-2.03,0,*41
1501995974.66,33614,24.25,74544.8,13.11,-1.99,-1.95,0,*40
1501995975.94,33615,24.31,74546.3,13.09,-2.11,-1.91,0,*4F
1501995977.19,33616,24.25,74546.8,13.07,-1.99,-1.95,0,*45
1501995978.43,33617,24.25,74544.0,13.07,-2.03,-1.91,0,*40
1501995979.71,33618,24.25,74546.0,13.09,-1.99,-1.87,0,*46
1501995980.99,33619,24.31,74542.8,13.09,-2.03,-1.99,0,*48
1501995982.24,33620,24.31,74542.3,13.07,-2.03,-1.91,0,*44
1501995983.48,33621,24.25,74534.0,13.07,-1.95,-1.83,0,*4A
1501995984.73,33622,24.25,74538.8,13.07,-2.07,-2.03,0,*4A
1501995985.98,33623,24.31,74540.5,13.09,-2.23,-2.03,0,*43
1501995987.19,33624,24.25,74538.8,13.07,-2.15,-1.95,0,*43
1501995988.43,33625,24.31,74542.3,13.07,-2.03,-1.95,0,*45
1501995989.68,33626,24.25,74544.8,13.03,-2.11,-1.95,0,*41
1501995990.95,33627,24.25,74544.0,13.05,-2.03,-1.91,0,*41
1501995992.2,33628,24.25,74544.0,13.05,-1.91,-1.79,0,*40
1501995993.42,33629,24.31,74550.8,13.05,-1.79,-1.63,0,*4C
1501995994.64,33630,24.31,74548.3,13.05,-1.79,-1.63,0,*44
1501995995.86,33631,24.31,74550.8,13.05,-1.67,-1.51,0,*4B
1501995997.12,33632,24.25,74544.8,13.05,-1.83,-1.71,0,*40
1501995998.36,33633,24.25,74544.0,13.03,-2.11,-1.95,0,*45
1501995999.59,33634,24.25,74550.0,13.03,-1.87,-1.67,0,*43
1501996000.84,33635,24.31,74548.0,13.05,-1.83,-1.71,0,*47
1501996002.1,33636,24.31,74548.3,13.05,-1.83,-1.71,0,*44
1501996003.35,33637,24.31,74548.5,13.03,-1.99,-1.83,0,*45
1501996004.57,33638,24.25,74544.3,13.03,-1.83,-1.67,0,*4B
1501996005.76,33639,24.25,74544.3,13.03,-1.75,-1.59,0,*4E
1501996006.99,33640,24.25,74546.3,13.05,-1.67,-1.51,0,*4D
1501996008.21,33641,24.31,74544.3,13.03,-1.55,-1.35,0,*49
1501996009.43,33642,24.25,74540.8,13.03,-1.47,-1.33,0,*4F
1501996010.65,33643,24.25,74544.3,13.03,-1.43,-1.21,0,*49
1501996011.88,33644,24.31,74546.0,13.03,-1.43,-1.21,0,*4E
1501996013.09,33645,24.25,74546.8,13.03,-1.47,-1.25,0,*4F
1501996014.31,33646,24.31,74546.5,13.05,-1.51,-1.21,0,*49
1501996015.53,33647,24.25,74546.8,13.03,-1.47,-1.33,0,*4A
1501996016.78,33648,24.25,74548.0,13.05,-1.67,-1.39,0,*4B
1501996018.01,33649,24.25,74550.8,13.03,-1.43,-1.21,0,*43
1501996019.22,33650,24.31,74552.5,13.03,-1.25,-1.01,0,*49
1501996020.44,33651,24.25,74550.3,13.03,-1.33,-1.13,0,*4C
1501996021.67,33652,24.31,74550.8,13.05,-1.71,-1.55,0,*4D
1501996022.91,33653,24.25,74548.0,13.03,-1.95,-1.95,0,*4C
1501996024.15,33654,24.25,74548.3,13.05,-1.91,-1.79,0,*4B
1501996025.37,33655,24.31,74550.3,13.03,-1.67,-1.43,0,*4C
1501996026.59,33656,24.25,74550.5,13.03,-1.47,-1.25,0,*4D
1501996027.81,33657,24.25,74548.3,13.03,-1.47,-1.25,0,*4C
1501996029.06,33658,24.25,74550.8,13.05,-1.39,-1.21,0,*48
1501996030.28,33659,24.25,74550.5,13.03,-1.35,-1.25,0,*47
1501996031.5,33660,24.25,74546.5,13.05,-1.51,-1.21,0,*4D
1501996032.75,33661,24.25,74548.3,13.05,-1.43,-1.29,0,*47
1501996034.0,33662,24.25,74550.0,13.05,-1.33,-1.09,0,*41
1501996035.25,33663,24.25,74548.5,13.05,-1.21,-1.05,0,*4F
1501996036.5,33664,24.25,74548.0,13.05,-1.29,-1.05,0,*40
1501996037.76,33665,24.31,74550.5,13.05,-1.39,-1.21,0,*46
1501996039.01,33666,24.25,74546.8,13.05,-1.39,-1.21,0,*45
1501996040.26,33667,24.25,74544.8,13.05,-1.43,-1.29,0,*41
1501996041.51,33668,24.25,74544.8,13.05,-1.43,-1.21,0,*46
1501996042.76,33669,24.25,74542.3,13.05,-1.33,-1.09,0,*4A
1501996044.01,33670,24.25,74544.0,13.05,-1.17,-0.97,0,*72
1501996045.25,33671,24.25,74546.3,13.05,-1.17,-0.97,0,*73
1501996046.47,33672,24.25,74544.3,13.07,-1.17,-0.97,0,*72
1501996047.69,33673,24.31,74550.3,13.07,-1.29,-1.09,0,*48
1501996048.89,33674,24.31,74548.0,13.07,-1.33,-1.17,0,*4B
1501996050.13,33675,24.25,74546.0,13.07,-1.09,-0.97,0,*7A
1501996051.36,33676,24.31,74550.8,13.07,-1.09,-0.93,0,*7D
1501996052.58,33677,24.31,74548.0,13.07,-1.17,-0.93,0,*73
1501996053.8,33678,24.25,74544.3,13.07,-1.29,-1.09,0,*43
1501996055.03,33679,24.25,74550.0,13.07,-1.39,-1.17,0,*4C
1501996056.22,33680,24.25,74548.8,13.07,-1.33,-1.17,0,*40
1501996057.45,33681,24.31,74550.0,13.07,-1.43,-1.29,0,*4B
1501996058.65,33682,24.25,74548.0,13.07,-1.33,-1.21,0,*47
1501996059.87,33683,24.25,74548.3,13.07,-1.29,-1.05,0,*4B
1501996061.07,33684,24.25,74548.5,13.07,-1.29,-1.17,0,*4F
1501996062.29,33685,24.25,74552.3,13.07,-1.39,-1.33,0,*49
1501996063.52,33686,24.25,74550.5,13.07,-1.43,-1.21,0,*44
1501996064.71,33687,24.25,74550.0,13.07,-1.51,-1.29,0,*4E
1501996065.94,33688,24.25,74548.8,13.07,-1.71,-1.43,0,*4F
1501996067.16,33689,24.31,74550.8,13.09,-1.75,-1.51,0,*47
1501996068.38,33690,24.25,74546.0,13.07,-1.67,-1.43,0,*41
1501996069.6,33691,24.25,74550.8,13.07,-1.67,-1.43,0,*40
1501996070.85,33692,24.25,74552.8,13.05,-1.67,-1.43,0,*41
1501996072.05,33693,24.25,74550.8,13.07,-1.71,-1.51,0,*46
1501996073.29,33694,24.25,74550.8,13.05,-1.63,-1.43,0,*43
1501996074.51,33695,24.31,74552.5,13.05,-1.67,-1.51,0,*45
1501996075.74,33696,24.25,74550.8,13.05,-1.71,-1.55,0,*45
1501996076.97,33697,24.25,74552.3,13.05,-1.71,-1.51,0,*40
1501996078.2,33698,24.25,74550.0,13.05,-1.71,-1.51,0,*4F
1501996079.42,33699,24.25,74552.8,13.05,-1.71,-1.63,0,*4F
1501996080.67,33700,24.25,74550.5,13.05,-1.67,-1.43,0,*4B
1501996081.89,33701,24.25,74552.3,13.03,-1.55,-1.35,0,*4C
1501996083.11,33702,24.25,74554.3,13.05,-1.51,-1.33,0,*4B
1501996084.32,33703,24.25,74554.5,13.03,-1.47,-1.25,0,*4C
1501996085.52,33704,24.25,74552.3,13.03,-1.55,-1.33,0,*4F
1501996086.73,33705,24.25,74554.8,13.03,-1.55,-1.35,0,*48
1501996087.93,33706,24.25,74554.0,13.03,-1.71,-1.55,0,*4B
1501996089.18,33707,24.25,74550.8,13.05,-1.43,-1.29,0,*46
1501996090.38,33708,24.25,74556.0,13.03,-1.33,-1.17,0,*45
1501996091.6,33709,24.25,74552.0,13.03,-1.43,-1.21,0,*46
1501996092.82,33710,24.25,74552.3,13.03,-1.25,-1.13,0,*4F
1501996094.07,33711,24.25,74550.5,13.05,-1.21,-1.09,0,*47
1501996095.29,33712,24.25,74552.3,13.03,-1.43,-1.25,0,*48
1501996096.5,33713,24.25,74552.8,13.05,-1.51,-1.29,0,*40
1501996097.7,33714,24.25,74558.5,13.03,-1.75,-1.55,0,*4C
1501996098.95,33715,24.25,74552.3,13.05,-1.39,-1.17,0,*45
1501996100.17,33716,24.25,74556.5,13.05,-1.29,-1.17,0,*47
1501996101.42,33717,24.25,74552.0,13.05,-1.47,-1.25,0,*4F
1501996102.64,33718,24.25,74552.5,13.03,-1.33,-1.13,0,*40
1501996103.86,33719,24.25,74556.5,13.03,-1.43,-1.33,0,*44
1501996105.07,33720,24.25,74552.5,13.05,-1.51,-1.29,0,*40
1501996106.29,33721,24.25,74556.0,13.03,-1.59,-1.35,0,*42
1501996107.48,33722,24.25,74554.3,13.03,-1.55,-1.33,0,*4B
1501996108.73,33723,24.25,74554.3,13.05,-1.55,-1.43,0,*4B